{"data":{"norad_id":64005,"epoch":"2026-09-20T21:56:08.618496Z","epoch_age_seconds":107727,"freshness":"FRESH","line1":"1 64005U 25101M   26263.91398864  .00013630  00000+0  50383-3 0  9995","line2":"2 64005  43.0049 335.3220 0001483 269.9353  90.1329 15.27585411 76914","mean_motion":15.27585411,"eccentricity":0.0001483,"inclination_deg":43.0049,"raan_deg":335.322,"arg_perigee_deg":269.9353,"mean_anomaly_deg":90.1329,"bstar":0.00050383,"rev_number":7691,"period_min":94.266414802779,"perigee_km":482.01538211166,"apogee_km":484.0504051021,"semimajor_km":6861.1698936069,"source":"CELESTRAK","updated_at":"2026-09-21T09:00:35.181968Z"}}